Voltar ao catálogo

STARLINK-33920

AtivoComunicaçõesVLEO
NORAD 63710·PAYLOAD·🇺🇸 United States

Lançado Apr 28, 2025 de Vandenberg Space Force Base

Loading…

Próximas Passagens (próximas 24 horas)

TLE

AtualizadoSource: CelesTrak SupGP

Época: Sep 15, 2026, 03:30 UTC

1 63710C 25087P   26258.14631944 -.00024208  00000+0 -77855-3 0  2584
2 63710  53.1580  58.3663 0001166  88.8980 247.4064 15.31711237    16

Acompanhe STARLINK-33920 em tempo real com AllMySat

Download on the App Store